Location: Grasslands National Park East Block
(49.0708°N, 106.5295°W)
Time: 12:50:43
(UTC-06:00)

SR - Pass Details

Date: 21 October 2019
Orbit: 573 x 882 km, 66.7° (Epoch: 21 November)

Event Time Altitude Azimuth Distance (km) Brightness Sun altitude
Rises 06:49:32 0° 325° (NW) 3,425 ? -8.3°
Reaches altitude 10° 06:52:02 10° 329° (NNW) 2,512 ? -7.9°
Maximum altitude 06:57:51 61° 49° (NE) 994 ? -6.9°
Drops below altitude 10° 07:03:43 10° 130° (SE) 2,528 ? -6.0°
Sets 07:06:14 0° 134° (SE) 3,448 ? -5.6°
